Year,Month,Day,Hour,Minute,Value (Times are PST for temperature in C)
2021,04,15,00,00,11.50
2021,04,15,00,01,11.50
2021,04,15,00,02,11.40
2021,04,15,00,03,11.40
2021,04,15,00,04,11.30
2021,04,15,00,05,11.30
2021,04,15,00,06,11.30
2021,04,15,00,07,11.20
2021,04,15,00,08,11.20
2021,04,15,00,09,11.10
2021,04,15,00,10,11.10
2021,04,15,00,11,11.00
2021,04,15,00,12,11.00
2021,04,15,00,13,10.90
2021,04,15,00,14,10.90
2021,04,15,00,15,10.80
2021,04,15,00,16,10.80
2021,04,15,00,17,10.80
2021,04,15,00,18,10.70
2021,04,15,00,19,10.70
2021,04,15,00,20,10.70
2021,04,15,00,21,10.60
2021,04,15,00,22,10.60
2021,04,15,00,23,10.60
2021,04,15,00,24,10.50
2021,04,15,00,25,10.50
2021,04,15,00,26,10.40
2021,04,15,00,27,10.30
2021,04,15,00,28,10.30
2021,04,15,00,29,10.30
2021,04,15,00,30,10.20
2021,04,15,00,31,10.20
2021,04,15,00,32,10.10
2021,04,15,00,33,10.10
2021,04,15,00,34,10.10
2021,04,15,00,35,10.10
2021,04,15,00,36,10.00
2021,04,15,00,37,10.00
2021,04,15,00,38,10.00
2021,04,15,00,39,10.00
2021,04,15,00,40,10.00
2021,04,15,00,41,10.00
2021,04,15,00,42,9.90
2021,04,15,00,43,9.90
2021,04,15,00,44,9.90
2021,04,15,00,45,9.90
2021,04,15,00,46,9.90
2021,04,15,00,47,9.90
2021,04,15,00,48,9.90
2021,04,15,00,49,9.80
2021,04,15,00,50,9.80
2021,04,15,00,51,9.80
2021,04,15,00,52,9.80
2021,04,15,00,53,9.70
2021,04,15,00,54,9.70
2021,04,15,00,55,9.70
2021,04,15,00,56,9.70
2021,04,15,00,57,9.60
2021,04,15,00,58,9.60
2021,04,15,00,59,9.60
2021,04,15,01,00,9.60
2021,04,15,01,01,9.60
2021,04,15,01,02,9.60
2021,04,15,01,03,9.60
2021,04,15,01,04,9.60
2021,04,15,01,05,9.60
2021,04,15,01,06,9.50
2021,04,15,01,07,9.50
2021,04,15,01,08,9.50
2021,04,15,01,09,9.50
2021,04,15,01,10,9.50
2021,04,15,01,11,9.50
2021,04,15,01,12,9.50
2021,04,15,01,13,9.40
2021,04,15,01,14,9.40
2021,04,15,01,15,9.40
2021,04,15,01,16,9.40
2021,04,15,01,17,9.40
2021,04,15,01,18,9.30
2021,04,15,01,19,9.30
2021,04,15,01,20,9.30
2021,04,15,01,21,9.30
2021,04,15,01,22,9.20
2021,04,15,01,23,9.20
2021,04,15,01,24,9.20
2021,04,15,01,25,9.20
2021,04,15,01,26,9.10
2021,04,15,01,27,9.10
2021,04,15,01,28,9.10
2021,04,15,01,29,9.00
2021,04,15,01,30,9.00
2021,04,15,01,31,9.00
2021,04,15,01,32,9.00
2021,04,15,01,33,8.90
2021,04,15,01,34,8.90
2021,04,15,01,35,8.90
2021,04,15,01,36,8.90
2021,04,15,01,37,8.90
2021,04,15,01,38,8.80
2021,04,15,01,39,8.80
2021,04,15,01,40,8.80
2021,04,15,01,41,8.70
2021,04,15,01,42,8.70
2021,04,15,01,43,8.70
2021,04,15,01,44,8.60
2021,04,15,01,45,8.60
2021,04,15,01,46,8.60
2021,04,15,01,47,8.60
2021,04,15,01,48,8.60
2021,04,15,01,49,8.60
2021,04,15,01,50,8.60
2021,04,15,01,51,8.60
2021,04,15,01,52,8.60
2021,04,15,01,53,8.60
2021,04,15,01,54,8.60
2021,04,15,01,55,8.60
2021,04,15,01,56,8.60
2021,04,15,01,57,8.60
2021,04,15,01,58,8.60
2021,04,15,01,59,8.70
2021,04,15,02,00,8.70
2021,04,15,02,01,8.70
2021,04,15,02,02,8.70
2021,04,15,02,03,8.70
2021,04,15,02,04,8.80
2021,04,15,02,05,8.80
2021,04,15,02,06,8.80
2021,04,15,02,07,8.80
2021,04,15,02,08,8.80
2021,04,15,02,09,8.80
2021,04,15,02,10,8.80
2021,04,15,02,11,8.90
2021,04,15,02,12,8.90
2021,04,15,02,13,8.90
2021,04,15,02,14,8.90
2021,04,15,02,15,8.90
2021,04,15,02,16,8.90
2021,04,15,02,17,8.80
2021,04,15,02,18,8.70
2021,04,15,02,19,8.50
2021,04,15,02,20,8.40
2021,04,15,02,21,8.30
2021,04,15,02,22,8.20
2021,04,15,02,23,8.10
2021,04,15,02,24,8.00
2021,04,15,02,25,7.90
2021,04,15,02,26,7.90
2021,04,15,02,27,7.80
2021,04,15,02,28,7.80
2021,04,15,02,29,7.80
2021,04,15,02,30,7.70
2021,04,15,02,31,7.70
2021,04,15,02,32,7.70
2021,04,15,02,33,7.70
2021,04,15,02,34,7.70
2021,04,15,02,35,7.70
2021,04,15,02,36,7.80
2021,04,15,02,37,7.80
2021,04,15,02,38,7.80
2021,04,15,02,39,7.80
2021,04,15,02,40,7.90
2021,04,15,02,41,7.90
2021,04,15,02,42,8.00
2021,04,15,02,43,8.10
2021,04,15,02,44,8.20
2021,04,15,02,45,8.30
2021,04,15,02,46,8.40
2021,04,15,02,47,8.40
2021,04,15,02,48,8.50
2021,04,15,02,49,8.60
2021,04,15,02,50,8.70
2021,04,15,02,51,8.70
2021,04,15,02,52,8.70
2021,04,15,02,53,8.70
2021,04,15,02,54,8.70
2021,04,15,02,55,8.80
2021,04,15,02,56,8.80
2021,04,15,02,57,8.80
2021,04,15,02,58,8.80
2021,04,15,02,59,8.70
2021,04,15,03,00,8.70
2021,04,15,03,01,8.70
2021,04,15,03,02,8.70
2021,04,15,03,03,8.70
2021,04,15,03,04,8.70
2021,04,15,03,05,8.70
2021,04,15,03,06,8.70
2021,04,15,03,07,8.70
2021,04,15,03,08,8.70
2021,04,15,03,09,8.80
2021,04,15,03,10,8.80
2021,04,15,03,11,8.80
2021,04,15,03,12,8.80
2021,04,15,03,13,8.80
2021,04,15,03,14,8.90
2021,04,15,03,15,9.00
2021,04,15,03,16,9.00
2021,04,15,03,17,9.10
2021,04,15,03,18,9.10
2021,04,15,03,19,9.20
2021,04,15,03,20,9.20
2021,04,15,03,21,9.20
2021,04,15,03,22,9.20
2021,04,15,03,23,9.20
2021,04,15,03,24,9.30
2021,04,15,03,25,9.30
2021,04,15,03,26,9.40
2021,04,15,03,27,9.50
2021,04,15,03,28,9.50
2021,04,15,03,29,9.60
2021,04,15,03,30,9.70
2021,04,15,03,31,9.80
2021,04,15,03,32,9.80
2021,04,15,03,33,9.90
2021,04,15,03,34,9.90
2021,04,15,03,35,9.90
2021,04,15,03,36,10.00
2021,04,15,03,37,10.00
2021,04,15,03,38,9.90
2021,04,15,03,39,9.90
2021,04,15,03,40,9.90
2021,04,15,03,41,9.90
2021,04,15,03,42,10.00
2021,04,15,03,43,10.00
2021,04,15,03,44,10.00
2021,04,15,03,45,10.00
2021,04,15,03,46,10.00
2021,04,15,03,47,10.00
2021,04,15,03,48,10.00
2021,04,15,03,49,10.10
2021,04,15,03,50,10.10
2021,04,15,03,51,10.10
2021,04,15,03,52,10.10
2021,04,15,03,53,10.10
2021,04,15,03,54,10.10
2021,04,15,03,55,10.00
2021,04,15,03,56,10.00
2021,04,15,03,57,9.90
2021,04,15,03,58,9.80
2021,04,15,03,59,9.80
2021,04,15,04,00,9.60
2021,04,15,04,01,9.50
2021,04,15,04,02,9.30
2021,04,15,04,03,9.20
2021,04,15,04,04,9.10
2021,04,15,04,05,8.90
2021,04,15,04,06,8.80
2021,04,15,04,07,8.70
2021,04,15,04,08,8.60
2021,04,15,04,09,8.50
2021,04,15,04,10,8.40
2021,04,15,04,11,8.30
2021,04,15,04,12,8.20
2021,04,15,04,13,8.20
2021,04,15,04,14,8.20
2021,04,15,04,15,8.20
2021,04,15,04,16,8.30
2021,04,15,04,17,8.30
2021,04,15,04,18,8.50
2021,04,15,04,19,8.60
2021,04,15,04,20,8.70
2021,04,15,04,21,8.90
2021,04,15,04,22,9.00
2021,04,15,04,23,9.20
2021,04,15,04,24,9.30
2021,04,15,04,25,9.40
2021,04,15,04,26,9.40
2021,04,15,04,27,9.40
2021,04,15,04,28,9.40
2021,04,15,04,29,9.40
2021,04,15,04,30,9.30
2021,04,15,04,31,9.30
2021,04,15,04,32,9.30
2021,04,15,04,33,9.20
2021,04,15,04,34,9.20
2021,04,15,04,35,9.20
2021,04,15,04,36,9.10
2021,04,15,04,37,9.10
2021,04,15,04,38,9.10
2021,04,15,04,39,9.10
2021,04,15,04,40,9.20
2021,04,15,04,41,9.20
2021,04,15,04,42,9.20
2021,04,15,04,43,9.20
2021,04,15,04,44,9.20
2021,04,15,04,45,9.10
2021,04,15,04,46,9.00
2021,04,15,04,47,8.80
2021,04,15,04,48,8.60
2021,04,15,04,49,8.40
2021,04,15,04,50,8.30
2021,04,15,04,51,8.10
2021,04,15,04,52,8.00
2021,04,15,04,53,7.80
2021,04,15,04,54,7.80
2021,04,15,04,55,7.70
2021,04,15,04,56,7.60
2021,04,15,04,57,7.50
2021,04,15,04,58,7.50
2021,04,15,04,59,7.40
2021,04,15,05,00,7.40
2021,04,15,05,01,7.30
2021,04,15,05,02,7.30
2021,04,15,05,03,7.30
2021,04,15,05,04,7.30
2021,04,15,05,05,7.30
2021,04,15,05,06,7.30
2021,04,15,05,07,7.40
2021,04,15,05,08,7.40
2021,04,15,05,09,7.40
2021,04,15,05,10,7.50
2021,04,15,05,11,7.50
2021,04,15,05,12,7.60
2021,04,15,05,13,7.60
2021,04,15,05,14,7.60
2021,04,15,05,15,7.70
2021,04,15,05,16,7.70
2021,04,15,05,17,7.70
2021,04,15,05,18,7.60
2021,04,15,05,19,7.60
2021,04,15,05,20,7.60
2021,04,15,05,21,7.60
2021,04,15,05,22,7.50
2021,04,15,05,23,7.50
2021,04,15,05,24,7.50
2021,04,15,05,25,7.50
2021,04,15,05,26,7.40
2021,04,15,05,27,7.40
2021,04,15,05,28,7.40
2021,04,15,05,29,7.40
2021,04,15,05,30,7.30
2021,04,15,05,31,7.30
2021,04,15,05,32,7.30
2021,04,15,05,33,7.30
2021,04,15,05,34,7.30
2021,04,15,05,35,7.30
2021,04,15,05,36,7.30
2021,04,15,05,37,7.30
2021,04,15,05,38,7.30
2021,04,15,05,39,7.40
2021,04,15,05,40,7.40
2021,04,15,05,41,7.50
2021,04,15,05,42,7.50
2021,04,15,05,43,7.60
2021,04,15,05,44,7.60
2021,04,15,05,45,7.60
2021,04,15,05,46,7.70
2021,04,15,05,47,7.70
2021,04,15,05,48,7.80
2021,04,15,05,49,7.90
2021,04,15,05,50,8.00
2021,04,15,05,51,8.00
2021,04,15,05,52,8.10
2021,04,15,05,53,8.20
2021,04,15,05,54,8.20
2021,04,15,05,55,8.30
2021,04,15,05,56,8.30
2021,04,15,05,57,8.30
2021,04,15,05,58,8.30
2021,04,15,05,59,8.30
2021,04,15,06,00,8.30
2021,04,15,06,01,8.30
2021,04,15,06,02,8.30
2021,04,15,06,03,8.30
2021,04,15,06,04,8.30
2021,04,15,06,05,8.20
2021,04,15,06,06,8.20
2021,04,15,06,07,8.20
2021,04,15,06,08,8.10
2021,04,15,06,09,8.10
2021,04,15,06,10,8.00
2021,04,15,06,11,7.90
2021,04,15,06,12,7.90
2021,04,15,06,13,7.80
2021,04,15,06,14,7.80
2021,04,15,06,15,7.70
2021,04,15,06,16,7.70
2021,04,15,06,17,7.70
2021,04,15,06,18,7.70
2021,04,15,06,19,7.60
2021,04,15,06,20,7.60
2021,04,15,06,21,7.60
2021,04,15,06,22,7.60
2021,04,15,06,23,7.60
2021,04,15,06,24,7.60
2021,04,15,06,25,7.70
2021,04,15,06,26,7.70
2021,04,15,06,27,7.70
2021,04,15,06,28,7.80
2021,04,15,06,29,7.80
2021,04,15,06,30,7.90
2021,04,15,06,31,8.00
2021,04,15,06,32,8.10
2021,04,15,06,33,8.10
2021,04,15,06,34,8.20
2021,04,15,06,35,8.30
2021,04,15,06,36,8.50
2021,04,15,06,37,8.60
2021,04,15,06,38,8.80
2021,04,15,06,39,8.90
2021,04,15,06,40,9.10
2021,04,15,06,41,9.20
2021,04,15,06,42,9.30
2021,04,15,06,43,9.40
2021,04,15,06,44,9.50
2021,04,15,06,45,9.70
2021,04,15,06,46,9.80
2021,04,15,06,47,10.00
2021,04,15,06,48,10.10
2021,04,15,06,49,10.20
2021,04,15,06,50,10.30
2021,04,15,06,51,10.30
2021,04,15,06,52,10.40
2021,04,15,06,53,10.50
2021,04,15,06,54,10.50
2021,04,15,06,55,10.50
2021,04,15,06,56,10.50
2021,04,15,06,57,10.50
2021,04,15,06,58,10.30
2021,04,15,06,59,9.90
2021,04,15,07,00,9.50
2021,04,15,07,01,9.10
2021,04,15,07,02,8.80
2021,04,15,07,03,8.40
2021,04,15,07,04,8.10
2021,04,15,07,05,7.90
2021,04,15,07,06,7.70
2021,04,15,07,07,7.50
2021,04,15,07,08,7.40
2021,04,15,07,09,7.30
2021,04,15,07,10,7.20
2021,04,15,07,11,7.10
2021,04,15,07,12,7.10
2021,04,15,07,13,7.00
2021,04,15,07,14,7.00
2021,04,15,07,15,7.00
2021,04,15,07,16,6.90
2021,04,15,07,17,6.90
2021,04,15,07,18,6.90
2021,04,15,07,19,6.90
2021,04,15,07,20,6.90
2021,04,15,07,21,7.00
2021,04,15,07,22,7.00
2021,04,15,07,23,7.00
2021,04,15,07,24,7.00
2021,04,15,07,25,7.10
2021,04,15,07,26,7.10
2021,04,15,07,27,7.10
2021,04,15,07,28,7.10
2021,04,15,07,29,7.20
2021,04,15,07,30,7.20
2021,04,15,07,31,7.20
2021,04,15,07,32,7.20
2021,04,15,07,33,7.30
2021,04,15,07,34,7.30
2021,04,15,07,35,7.30
2021,04,15,07,36,7.40
2021,04,15,07,37,7.40
2021,04,15,07,38,7.50
2021,04,15,07,39,7.60
2021,04,15,07,40,7.60
2021,04,15,07,41,7.60
2021,04,15,07,42,7.70
2021,04,15,07,43,7.70
2021,04,15,07,44,7.70
2021,04,15,07,45,7.70
2021,04,15,07,46,7.80
2021,04,15,07,47,7.80
2021,04,15,07,48,7.80
2021,04,15,07,49,7.90
2021,04,15,07,50,7.90
2021,04,15,07,51,7.90
2021,04,15,07,52,8.00
2021,04,15,07,53,8.00
2021,04,15,07,54,8.00
2021,04,15,07,55,8.10
2021,04,15,07,56,8.10
2021,04,15,07,57,8.20
2021,04,15,07,58,8.20
2021,04,15,07,59,8.30
2021,04,15,08,00,8.30
2021,04,15,08,01,8.40
2021,04,15,08,02,8.40
2021,04,15,08,03,8.50
2021,04,15,08,04,8.50
2021,04,15,08,05,8.60
2021,04,15,08,06,8.70
2021,04,15,08,07,8.70
2021,04,15,08,08,8.80
2021,04,15,08,09,8.80
2021,04,15,08,10,8.90
2021,04,15,08,11,9.00
2021,04,15,08,12,9.00
2021,04,15,08,13,9.10
2021,04,15,08,14,9.10
2021,04,15,08,15,9.20
2021,04,15,08,16,9.20
2021,04,15,08,17,9.30
2021,04,15,08,18,9.30
2021,04,15,08,19,9.40
2021,04,15,08,20,9.40
2021,04,15,08,21,9.50
2021,04,15,08,22,9.60
2021,04,15,08,23,9.60
2021,04,15,08,24,9.70
2021,04,15,08,25,9.70
2021,04,15,08,26,9.80
2021,04,15,08,27,9.90
2021,04,15,08,28,9.90
2021,04,15,08,29,10.00
2021,04,15,08,30,10.10
2021,04,15,08,31,10.20
2021,04,15,08,32,10.20
2021,04,15,08,33,10.30
2021,04,15,08,34,10.30
2021,04,15,08,35,10.30
2021,04,15,08,36,10.40
2021,04,15,08,37,10.40
2021,04,15,08,38,10.50
2021,04,15,08,39,10.60
2021,04,15,08,40,10.60
2021,04,15,08,41,10.70
2021,04,15,08,42,10.80
2021,04,15,08,43,10.80
2021,04,15,08,44,10.90
2021,04,15,08,45,10.90
2021,04,15,08,46,11.00
2021,04,15,08,47,11.00
2021,04,15,08,48,11.00
2021,04,15,08,49,11.10
2021,04,15,08,50,11.10
2021,04,15,08,51,11.20
2021,04,15,08,52,11.20
2021,04,15,08,53,11.30
2021,04,15,08,54,11.40
2021,04,15,08,55,11.40
2021,04,15,08,56,11.50
2021,04,15,08,57,11.60
2021,04,15,08,58,11.70
2021,04,15,08,59,11.70
2021,04,15,09,00,11.80
2021,04,15,09,01,11.90
2021,04,15,09,02,11.90
2021,04,15,09,03,12.00
2021,04,15,09,04,12.00
2021,04,15,09,05,12.10
2021,04,15,09,06,12.10
2021,04,15,09,07,12.20
2021,04,15,09,08,12.20
2021,04,15,09,09,12.30
2021,04,15,09,10,12.30
2021,04,15,09,11,12.40
2021,04,15,09,12,12.50
2021,04,15,09,13,12.60
2021,04,15,09,14,12.70
2021,04,15,09,15,12.80
2021,04,15,09,16,12.90
2021,04,15,09,17,13.00
2021,04,15,09,18,13.10
2021,04,15,09,19,13.30
2021,04,15,09,20,13.40
2021,04,15,09,21,13.50
2021,04,15,09,22,13.50
2021,04,15,09,23,13.60
2021,04,15,09,24,13.70
2021,04,15,09,25,13.70
2021,04,15,09,26,13.70
2021,04,15,09,27,13.70
2021,04,15,09,28,13.80
2021,04,15,09,29,13.80
2021,04,15,09,30,13.80
2021,04,15,09,31,13.80
2021,04,15,09,32,13.80
2021,04,15,09,33,13.90
2021,04,15,09,34,14.00
2021,04,15,09,35,14.00
2021,04,15,09,36,14.10
2021,04,15,09,37,14.10
2021,04,15,09,38,14.10
2021,04,15,09,39,14.20
2021,04,15,09,40,14.20
2021,04,15,09,41,14.20
2021,04,15,09,42,14.20
2021,04,15,09,43,14.20
2021,04,15,09,44,14.30
2021,04,15,09,45,14.40
2021,04,15,09,46,14.40
2021,04,15,09,47,14.40
2021,04,15,09,48,14.40
2021,04,15,09,49,14.40
2021,04,15,09,50,14.40
2021,04,15,09,51,14.40
2021,04,15,09,52,14.40
2021,04,15,09,53,14.40
2021,04,15,09,54,14.40
2021,04,15,09,55,14.40
2021,04,15,09,56,14.40
2021,04,15,09,57,14.40
2021,04,15,09,58,14.40
2021,04,15,09,59,14.40
2021,04,15,10,00,14.40
2021,04,15,10,01,14.40
2021,04,15,10,02,14.40
2021,04,15,10,03,14.40
2021,04,15,10,04,14.40
2021,04,15,10,05,14.40
2021,04,15,10,06,14.40
2021,04,15,10,07,14.40
2021,04,15,10,08,14.40
2021,04,15,10,09,14.40
2021,04,15,10,10,14.40
2021,04,15,10,11,14.40
2021,04,15,10,12,14.40
2021,04,15,10,13,14.40
2021,04,15,10,14,14.40
2021,04,15,10,15,14.40
2021,04,15,10,16,14.50
2021,04,15,10,17,14.50
2021,04,15,10,18,14.50
2021,04,15,10,19,14.40
2021,04,15,10,20,14.40
2021,04,15,10,21,14.50
2021,04,15,10,22,14.50
2021,04,15,10,23,14.50
2021,04,15,10,24,14.60
2021,04,15,10,25,14.60
2021,04,15,10,26,14.60
2021,04,15,10,27,14.70
2021,04,15,10,28,14.70
2021,04,15,10,29,14.80
2021,04,15,10,30,14.80
2021,04,15,10,31,14.80
2021,04,15,10,32,14.80
2021,04,15,10,33,14.90
2021,04,15,10,34,14.90
2021,04,15,10,35,14.90
2021,04,15,10,36,15.00
2021,04,15,10,37,15.10
2021,04,15,10,38,15.10
2021,04,15,10,39,15.10
2021,04,15,10,40,15.20
2021,04,15,10,41,15.20
2021,04,15,10,42,15.20
2021,04,15,10,43,15.20
2021,04,15,10,44,15.20
2021,04,15,10,45,15.20
2021,04,15,10,46,15.20
2021,04,15,10,47,15.20
2021,04,15,10,48,15.10
2021,04,15,10,49,15.10
2021,04,15,10,50,15.20
2021,04,15,10,51,15.20
2021,04,15,10,52,15.20
2021,04,15,10,53,15.30
2021,04,15,10,54,15.40
2021,04,15,10,55,15.50
2021,04,15,10,56,15.60
2021,04,15,10,57,15.70
2021,04,15,10,58,15.80
2021,04,15,10,59,15.90
2021,04,15,11,00,16.00
2021,04,15,11,01,16.10
2021,04,15,11,02,16.20
2021,04,15,11,03,16.20
2021,04,15,11,04,16.20
2021,04,15,11,05,16.20
2021,04,15,11,06,16.20
2021,04,15,11,07,16.20
2021,04,15,11,08,16.10
2021,04,15,11,09,16.10
2021,04,15,11,10,16.10
2021,04,15,11,11,16.10
2021,04,15,11,12,16.10
2021,04,15,11,13,16.10
2021,04,15,11,14,16.10
2021,04,15,11,15,16.10
2021,04,15,11,16,16.10
2021,04,15,11,17,16.10
2021,04,15,11,18,16.20
2021,04,15,11,19,16.20
2021,04,15,11,20,16.30
2021,04,15,11,21,16.30
2021,04,15,11,22,16.40
2021,04,15,11,23,16.50
2021,04,15,11,24,16.50
2021,04,15,11,25,16.60
2021,04,15,11,26,16.60
2021,04,15,11,27,16.60
2021,04,15,11,28,16.60
2021,04,15,11,29,16.60
2021,04,15,11,30,16.60
2021,04,15,11,31,16.60
2021,04,15,11,32,16.50
2021,04,15,11,33,16.50
2021,04,15,11,34,16.60
2021,04,15,11,35,16.60
2021,04,15,11,36,16.60
2021,04,15,11,37,16.60
2021,04,15,11,38,16.60
2021,04,15,11,39,16.60
2021,04,15,11,40,16.70
2021,04,15,11,41,16.70
2021,04,15,11,42,16.80
2021,04,15,11,43,16.80
2021,04,15,11,44,16.80
2021,04,15,11,45,16.80
2021,04,15,11,46,16.80
2021,04,15,11,47,16.80
2021,04,15,11,48,16.80
2021,04,15,11,49,16.80
2021,04,15,11,50,16.80
2021,04,15,11,51,16.80
2021,04,15,11,52,16.70
2021,04,15,11,53,16.70
2021,04,15,11,54,16.70
2021,04,15,11,55,16.70
2021,04,15,11,56,16.70
2021,04,15,11,57,16.70
2021,04,15,11,58,16.70
2021,04,15,11,59,16.80
2021,04,15,12,00,16.80
2021,04,15,12,01,16.80
2021,04,15,12,02,16.90
2021,04,15,12,03,16.90
2021,04,15,12,04,17.00
2021,04,15,12,05,17.00
2021,04,15,12,06,17.10
2021,04,15,12,07,17.00
2021,04,15,12,08,17.00
2021,04,15,12,09,17.00
2021,04,15,12,10,17.10
2021,04,15,12,11,17.10
2021,04,15,12,12,17.10
2021,04,15,12,13,17.10
2021,04,15,12,14,17.10
2021,04,15,12,15,17.10
2021,04,15,12,16,17.10
2021,04,15,12,17,17.10
2021,04,15,12,18,17.10
2021,04,15,12,19,17.10
2021,04,15,12,20,17.10
2021,04,15,12,21,17.20
2021,04,15,12,22,17.20
2021,04,15,12,23,17.20
2021,04,15,12,24,17.20
2021,04,15,12,25,17.20
2021,04,15,12,26,17.20
2021,04,15,12,27,17.20
2021,04,15,12,28,17.30
2021,04,15,12,29,17.30
2021,04,15,12,30,17.30
2021,04,15,12,31,17.40
2021,04,15,12,32,17.50
2021,04,15,12,33,17.50
2021,04,15,12,34,17.50
2021,04,15,12,35,17.50
2021,04,15,12,36,17.40
2021,04,15,12,37,17.30
2021,04,15,12,38,17.40
2021,04,15,12,39,17.40
2021,04,15,12,40,17.40
2021,04,15,12,41,17.50
2021,04,15,12,42,17.50
2021,04,15,12,43,17.60
2021,04,15,12,44,17.70
2021,04,15,12,45,17.80
2021,04,15,12,46,17.90
2021,04,15,12,47,18.00
2021,04,15,12,48,18.00
2021,04,15,12,49,18.00
2021,04,15,12,50,18.10
2021,04,15,12,51,18.10
2021,04,15,12,52,18.10
2021,04,15,12,53,18.10
2021,04,15,12,54,18.10
2021,04,15,12,55,18.20
2021,04,15,12,56,18.30
2021,04,15,12,57,18.30
2021,04,15,12,58,18.40
2021,04,15,12,59,18.40
2021,04,15,13,00,18.50
2021,04,15,13,01,18.50
2021,04,15,13,02,18.60
2021,04,15,13,03,18.70
2021,04,15,13,04,18.70
2021,04,15,13,05,18.70
2021,04,15,13,06,18.70
2021,04,15,13,07,18.80
2021,04,15,13,08,18.80
2021,04,15,13,09,18.80
2021,04,15,13,10,18.80
2021,04,15,13,11,18.80
2021,04,15,13,12,18.80
2021,04,15,13,13,18.90
2021,04,15,13,14,18.80
2021,04,15,13,15,18.80
2021,04,15,13,16,18.80
2021,04,15,13,17,18.70
2021,04,15,13,18,18.70
2021,04,15,13,19,18.60
2021,04,15,13,20,18.60
2021,04,15,13,21,18.60
2021,04,15,13,22,18.60
2021,04,15,13,23,18.50
2021,04,15,13,24,18.50
2021,04,15,13,25,18.40
2021,04,15,13,26,18.40
2021,04,15,13,27,18.50
2021,04,15,13,28,18.50
2021,04,15,13,29,18.60
2021,04,15,13,30,18.70
2021,04,15,13,31,18.80
2021,04,15,13,32,18.80
2021,04,15,13,33,18.80
2021,04,15,13,34,18.80
2021,04,15,13,35,18.80
2021,04,15,13,36,18.80
2021,04,15,13,37,18.80
2021,04,15,13,38,18.80
2021,04,15,13,39,18.70
2021,04,15,13,40,18.70
2021,04,15,13,41,18.70
2021,04,15,13,42,18.70
2021,04,15,13,43,18.80
2021,04,15,13,44,18.80
2021,04,15,13,45,18.80
2021,04,15,13,46,18.80
2021,04,15,13,47,18.80
2021,04,15,13,48,18.80
2021,04,15,13,49,18.90
2021,04,15,13,50,18.90
2021,04,15,13,51,18.90
2021,04,15,13,52,18.80
2021,04,15,13,53,18.80
2021,04,15,13,54,18.90
2021,04,15,13,55,18.90
2021,04,15,13,56,19.00
2021,04,15,13,57,19.10
2021,04,15,13,58,19.10
2021,04,15,13,59,19.10
2021,04,15,14,00,19.10
2021,04,15,14,01,19.10
2021,04,15,14,02,19.20
2021,04,15,14,03,19.20
2021,04,15,14,04,19.30
2021,04,15,14,05,19.30
2021,04,15,14,06,19.30
2021,04,15,14,07,19.30
2021,04,15,14,08,19.30
2021,04,15,14,09,19.30
2021,04,15,14,10,19.30
2021,04,15,14,11,19.30
2021,04,15,14,12,19.40
2021,04,15,14,13,19.40
2021,04,15,14,14,19.50
2021,04,15,14,15,19.50
2021,04,15,14,16,19.60
2021,04,15,14,17,19.60
2021,04,15,14,18,19.60
2021,04,15,14,19,19.60
2021,04,15,14,20,19.70
2021,04,15,14,21,19.80
2021,04,15,14,22,19.80
2021,04,15,14,23,19.80
2021,04,15,14,24,19.80
2021,04,15,14,25,19.80
2021,04,15,14,26,19.80
2021,04,15,14,27,19.80
2021,04,15,14,28,19.80
2021,04,15,14,29,19.90
2021,04,15,14,30,19.90
2021,04,15,14,31,20.00
2021,04,15,14,32,20.00
2021,04,15,14,33,20.10
2021,04,15,14,34,20.10
2021,04,15,14,35,20.20
2021,04,15,14,36,20.20
2021,04,15,14,37,20.20
2021,04,15,14,38,20.20
2021,04,15,14,39,20.20
2021,04,15,14,40,20.20
2021,04,15,14,41,20.30
2021,04,15,14,42,20.30
2021,04,15,14,43,20.30
2021,04,15,14,44,20.40
2021,04,15,14,45,20.50
2021,04,15,14,46,20.60
2021,04,15,14,47,20.70
2021,04,15,14,48,20.70
2021,04,15,14,49,20.70
2021,04,15,14,50,20.70
2021,04,15,14,51,20.70
2021,04,15,14,52,20.70
2021,04,15,14,53,20.80
2021,04,15,14,54,20.80
2021,04,15,14,55,20.80
2021,04,15,14,56,20.80
2021,04,15,14,57,20.70
2021,04,15,14,58,20.70
2021,04,15,14,59,20.70
2021,04,15,15,00,20.70
2021,04,15,15,01,20.80
2021,04,15,15,02,20.80
2021,04,15,15,03,20.90
2021,04,15,15,04,20.90
2021,04,15,15,05,21.00
2021,04,15,15,06,21.00
2021,04,15,15,07,21.00
2021,04,15,15,08,20.90
2021,04,15,15,09,21.00
2021,04,15,15,10,21.00
2021,04,15,15,11,20.90
2021,04,15,15,12,20.90
2021,04,15,15,13,20.80
2021,04,15,15,14,20.80
2021,04,15,15,15,20.80
2021,04,15,15,16,20.80
2021,04,15,15,17,20.70
2021,04,15,15,18,20.70
2021,04,15,15,19,20.70
2021,04,15,15,20,20.70
2021,04,15,15,21,20.70
2021,04,15,15,22,20.70
2021,04,15,15,23,20.70
2021,04,15,15,24,20.70
2021,04,15,15,25,20.70
2021,04,15,15,26,20.80
2021,04,15,15,27,20.80
2021,04,15,15,28,20.90
2021,04,15,15,29,20.90
2021,04,15,15,30,20.90
2021,04,15,15,31,21.00
2021,04,15,15,32,21.10
2021,04,15,15,33,21.10
2021,04,15,15,34,21.10
2021,04,15,15,35,21.10
2021,04,15,15,36,21.10
2021,04,15,15,37,21.10
2021,04,15,15,38,21.10
2021,04,15,15,39,21.10
2021,04,15,15,40,21.10
2021,04,15,15,41,21.10
2021,04,15,15,42,21.10
2021,04,15,15,43,21.10
2021,04,15,15,44,21.10
2021,04,15,15,45,21.20
2021,04,15,15,46,21.20
2021,04,15,15,47,21.20
2021,04,15,15,48,21.20
2021,04,15,15,49,21.20
2021,04,15,15,50,21.20
2021,04,15,15,51,21.20
2021,04,15,15,52,21.30
2021,04,15,15,53,21.30
2021,04,15,15,54,21.30
2021,04,15,15,55,21.30
2021,04,15,15,56,21.40
2021,04,15,15,57,21.40
2021,04,15,15,58,21.50
2021,04,15,15,59,21.50
2021,04,15,16,00,21.50
2021,04,15,16,01,21.50
2021,04,15,16,02,21.50
2021,04,15,16,03,21.50
2021,04,15,16,04,21.40
2021,04,15,16,05,21.40
2021,04,15,16,06,21.40
2021,04,15,16,07,21.40
2021,04,15,16,08,21.40
2021,04,15,16,09,21.40
2021,04,15,16,10,21.40
2021,04,15,16,11,21.40
2021,04,15,16,12,21.40
2021,04,15,16,13,21.40
2021,04,15,16,14,21.50
2021,04,15,16,15,21.60
2021,04,15,16,16,21.60
2021,04,15,16,17,21.70
2021,04,15,16,18,21.70
2021,04,15,16,19,21.70
2021,04,15,16,20,21.60
2021,04,15,16,21,21.60
2021,04,15,16,22,21.60
2021,04,15,16,23,21.60
2021,04,15,16,24,21.60
2021,04,15,16,25,21.60
2021,04,15,16,26,21.60
2021,04,15,16,27,21.60
2021,04,15,16,28,21.70
2021,04,15,16,29,21.70
2021,04,15,16,30,21.80
2021,04,15,16,31,21.80
2021,04,15,16,32,21.70
2021,04,15,16,33,21.70
2021,04,15,16,34,21.80
2021,04,15,16,35,21.80
2021,04,15,16,36,21.80
2021,04,15,16,37,21.80
2021,04,15,16,38,21.70
2021,04,15,16,39,21.70
2021,04,15,16,40,21.70
2021,04,15,16,41,21.70
2021,04,15,16,42,21.70
2021,04,15,16,43,21.70
2021,04,15,16,44,21.70
2021,04,15,16,45,21.60
2021,04,15,16,46,21.60
2021,04,15,16,47,21.60
2021,04,15,16,48,21.50
2021,04,15,16,49,21.50
2021,04,15,16,50,21.50
2021,04,15,16,51,21.40
2021,04,15,16,52,21.40
2021,04,15,16,53,21.40
2021,04,15,16,54,21.50
2021,04,15,16,55,21.60
2021,04,15,16,56,21.60
2021,04,15,16,57,21.70
2021,04,15,16,58,21.80
2021,04,15,16,59,21.80
2021,04,15,17,00,21.80
2021,04,15,17,01,21.80
2021,04,15,17,02,21.90
2021,04,15,17,03,21.80
2021,04,15,17,04,21.80
2021,04,15,17,05,21.90
2021,04,15,17,06,21.90
2021,04,15,17,07,21.90
2021,04,15,17,08,21.90
2021,04,15,17,09,21.90
2021,04,15,17,10,21.90
2021,04,15,17,11,22.00
2021,04,15,17,12,22.00
2021,04,15,17,13,22.00
2021,04,15,17,14,22.10
2021,04,15,17,15,22.00
2021,04,15,17,16,22.00
2021,04,15,17,17,22.00
2021,04,15,17,18,22.00
2021,04,15,17,19,22.10
2021,04,15,17,20,22.10
2021,04,15,17,21,22.10
2021,04,15,17,22,22.20
2021,04,15,17,23,22.20
2021,04,15,17,24,22.30
2021,04,15,17,25,22.30
2021,04,15,17,26,22.40
2021,04,15,17,27,22.40
2021,04,15,17,28,22.40
2021,04,15,17,29,22.40
2021,04,15,17,30,22.30
2021,04,15,17,31,22.30
2021,04,15,17,32,22.30
2021,04,15,17,33,22.30
2021,04,15,17,34,22.30
2021,04,15,17,35,22.30
2021,04,15,17,36,22.30
2021,04,15,17,37,22.30
2021,04,15,17,38,22.30